Погода в Будапеште

Венгрия     47°29′33″N   19°03′05″E
темп.,
°C
ветер,
м/с
пор.,
м/с
влажн.,
%
обл.,
%
осадки,
мм/ч
давл.,
гПа
погр.,
м
13 июня, вс
вс1323:00+21з3969100 0.1 1013388
02:00+18зсз51288100 2.8 1013843
05:00+15сз613750 0.3 1014622
08:00+17сз712600 0.3 10171170
11:00+19ссз694779 0.1 10182088
14:00+21сз710365 0.1 10182437
17:00+21сз710384 0.0 10182228
20:00+18ссз49520 0.0 10191312
14 июня, пн
пн1423:00+14сз49580 0.0 1021652
02:00+12сз38640 0.0 1021285
05:00+10сз35750 0.0 1021167
08:00+14ссз34592 0.0 1022396
11:00+19ссз22410 0.0 10211515
14:00+21сз333649 0.0 10202516
17:00+22ссз233237 0.0 10182381
20:00+20с234661 0.0 1018194
15 июня, вт
вт1523:00+17юв23545 0.0 1019105
02:00+15вюв12625 0.0 102084
05:00+14з11645 0.0 102013
08:00+18з115056 0.0 1020338
11:00+22зюз2139100 0.0 10191288
14:00+24з3235100 0.0 10181907
17:00+24сз4338100 0.0 10171932
20:00+21сз2448100 0.0 1017300
16 июня, ср
ср1623:00+19сз2253100 0.0 101750
02:00+17с1162100 0.0 101817
05:00+17св1167100 0.0 101826
08:00+20вюв1256100 0.0 1018347
11:00+25вюв12395 0.0 10181299
14:00+28св23280 0.0 10172251
17:00+28в223235 0.0 10162323
20:00+25ююв11460 0.0 101771
17 июня, чт
чт1723:00+22ю00560 0.0 101811
02:00+20всв11624 0.0 101814
05:00+19юв117297 0.0 101820
08:00+22ююв12589 0.0 1018433
11:00+27ю11440 0.0 10181346
14:00+28зюз224099 0.1 10162353
17:00+25вюв235592 0.2 1016174
20:00+24юв12588 0.2 101644